TUI772 LOWI-EDDF

Flight info

Callsign TUI772
Flight time 0h 51m
Altitude 34000
Route KOGOL M726 ERNAS T161 DEBHI SPESA5B
Aircraft B739/M-SDE2E3FGHIRWXY/LB1

Departure

Time 2026-05-07 18:06
Airport Innsbruck Airport (LOWI)

Arrival

Time 2026-05-07 18:57
Airport Frankfurt Main Airport (EDDF)
Time Latitude Longitude Altitude Speed Heading
2026-05-07 17:38 47.25829 11.35113 1872 ft 0 kts 174°
2026-05-07 17:54 47.25844 11.35111 1894 ft 4 kts 183°
2026-05-07 17:54 47.25868 11.35120 1895 ft 4 kts 215°
2026-05-07 17:55 47.25883 11.35147 1889 ft 3 kts 260°
2026-05-07 17:55 47.25883 11.35151 1890 ft 1 kts 262°
2026-05-07 18:01 47.25879 11.35115 1900 ft 11 kts 261°
2026-05-07 18:01 47.25861 11.34949 1896 ft 18 kts 261°
2026-05-07 18:02 47.25827 11.34595 1900 ft 17 kts 259°
2026-05-07 18:02 47.25809 11.34428 1894 ft 16 kts 262°
2026-05-07 18:02 47.25793 11.34267 1898 ft 16 kts 261°
2026-05-07 18:03 47.25777 11.34114 1891 ft 15 kts 261°
2026-05-07 18:03 47.25778 11.33965 1903 ft 14 kts 284°
2026-05-07 18:03 47.25828 11.33844 1909 ft 14 kts 311°
2026-05-07 18:03 47.25883 11.33734 1905 ft 13 kts 299°
2026-05-07 18:04 47.25932 11.33625 1908 ft 13 kts 322°
2026-05-07 18:04 47.25979 11.33615 1913 ft 6 kts 27°
2026-05-07 18:04 47.26004 11.33689 1911 ft 9 kts 106°
2026-05-07 18:04 47.25961 11.33759 1907 ft 9 kts 122°
2026-05-07 18:05 47.25962 11.33848 1914 ft 17 kts 81°
2026-05-07 18:05 47.26026 11.34444 1897 ft 102 kts 81°
2026-05-07 18:05 47.26178 11.35824 1905 ft 170 kts 79°
2026-05-07 18:05 47.26396 11.37732 2385 ft 201 kts 80°
2026-05-07 18:06 47.26626 11.39921 2923 ft 236 kts 81°
2026-05-07 18:06 47.26857 11.42232 4264 ft 221 kts 81°
2026-05-07 18:06 47.27105 11.44529 5064 ft 226 kts 79°
2026-05-07 18:06 47.27571 11.46756 5733 ft 228 kts 69°
2026-05-07 18:07 47.28204 11.48857 6577 ft 221 kts 64°
2026-05-07 18:07 47.28847 11.50992 6958 ft 237 kts 66°
2026-05-07 18:07 47.29525 11.53317 7248 ft 253 kts 66°
2026-05-07 18:07 47.30217 11.55737 7729 ft 260 kts 66°
2026-05-07 18:08 47.30917 11.58205 8294 ft 263 kts 66°
2026-05-07 18:08 47.31630 11.60720 8859 ft 267 kts 66°
2026-05-07 18:08 47.32356 11.63251 9443 ft 269 kts 66°
2026-05-07 18:08 47.33085 11.65780 9983 ft 272 kts 66°
2026-05-07 18:09 47.33834 11.68375 10508 ft 276 kts 66°
2026-05-07 18:09 47.34589 11.70997 11102 ft 280 kts 66°
2026-05-07 18:09 47.35352 11.73652 11834 ft 282 kts 66°
2026-05-07 18:09 47.36119 11.76325 12698 ft 284 kts 66°
2026-05-07 18:10 47.36895 11.79032 13444 ft 288 kts 66°
2026-05-07 18:10 47.37685 11.81790 14166 ft 293 kts 66°
2026-05-07 18:10 47.38478 11.84564 14840 ft 294 kts 66°
2026-05-07 18:10 47.39268 11.87329 15521 ft 298 kts 66°
2026-05-07 18:11 47.40076 11.90160 16204 ft 301 kts 65°
2026-05-07 18:11 47.40628 11.92096 16650 ft 304 kts 66°
2026-05-07 18:11 47.41721 11.95933 17537 ft 308 kts 65°
2026-05-07 18:11 47.42557 11.98875 18250 ft 312 kts 65°
2026-05-07 18:12 47.43622 12.01654 18811 ft 312 kts 44°
2026-05-07 18:12 47.45367 12.03466 19396 ft 307 kts 18°
2026-05-07 18:12 47.47440 12.04026 19991 ft 303 kts 354°
2026-05-07 18:12 47.49493 12.03466 20598 ft 301 kts 339°
2026-05-07 18:13 47.51442 12.02319 21213 ft 302 kts 333°
2026-05-07 18:13 47.53361 12.01013 21799 ft 305 kts 332°
2026-05-07 18:13 47.55284 11.99671 22410 ft 308 kts 332°
2026-05-07 18:13 47.57209 11.98334 23016 ft 311 kts 332°
2026-05-07 18:14 47.59188 11.96975 23602 ft 314 kts 332°
2026-05-07 18:14 47.61179 11.95620 24101 ft 317 kts 332°
2026-05-07 18:14 47.63191 11.94258 24613 ft 319 kts 332°
2026-05-07 18:14 47.65226 11.92884 25132 ft 322 kts 332°
2026-05-07 18:15 47.67271 11.91506 25622 ft 324 kts 332°
2026-05-07 18:15 47.69333 11.90115 26117 ft 327 kts 332°
2026-05-07 18:15 47.71412 11.88713 26654 ft 328 kts 332°
2026-05-07 18:15 47.73485 11.87316 27292 ft 325 kts 332°
2026-05-07 18:16 47.75513 11.85947 27911 ft 324 kts 332°
2026-05-07 18:16 47.77567 11.84562 28485 ft 323 kts 332°
2026-05-07 18:16 47.79617 11.83186 29046 ft 322 kts 332°
2026-05-07 18:16 47.81657 11.81817 29618 ft 321 kts 332°
2026-05-07 18:17 47.83691 11.80451 30134 ft 320 kts 332°
2026-05-07 18:17 47.85717 11.79088 30532 ft 319 kts 332°
2026-05-07 18:17 47.87740 11.77725 30913 ft 319 kts 332°
2026-05-07 18:17 47.89762 11.76362 31298 ft 319 kts 332°
2026-05-07 18:18 47.91785 11.74997 31674 ft 318 kts 331°
2026-05-07 18:18 47.93799 11.73637 32016 ft 319 kts 331°
2026-05-07 18:18 47.95832 11.72259 32016 ft 331 kts 331°
2026-05-07 18:18 47.97961 11.70815 32055 ft 342 kts 332°
2026-05-07 18:19 48.00164 11.69320 32064 ft 353 kts 332°
2026-05-07 18:19 48.02453 11.67768 32058 ft 365 kts 332°
2026-05-07 18:19 48.04785 11.66186 32062 ft 376 kts 332°
2026-05-07 18:19 48.07220 11.64533 32057 ft 388 kts 332°
2026-05-07 18:20 48.09715 11.62839 32059 ft 399 kts 332°
2026-05-07 18:20 48.14773 11.59396 32061 ft 419 kts 332°
2026-05-07 18:21 48.20164 11.55715 32062 ft 437 kts 333°
2026-05-07 18:21 48.25817 11.51850 32053 ft 452 kts 333°
2026-05-07 18:22 48.31548 11.47924 32036 ft 451 kts 333°
2026-05-07 18:22 48.36979 11.44193 32039 ft 446 kts 333°
2026-05-07 18:23 48.42651 11.40282 32055 ft 449 kts 333°
2026-05-07 18:23 48.48296 11.36381 32042 ft 448 kts 333°
2026-05-07 18:24 48.53963 11.32456 32049 ft 447 kts 333°
2026-05-07 18:24 48.59631 11.28521 32052 ft 448 kts 333°
2026-05-07 18:25 48.65416 11.25108 32049 ft 452 kts 343°
2026-05-07 18:25 48.71687 11.23815 32046 ft 455 kts 347°
2026-05-07 18:25 48.74723 11.22582 32052 ft 450 kts 336°
2026-05-07 18:26 48.77539 11.20552 32061 ft 447 kts 327°
2026-05-07 18:26 48.82498 11.14912 32055 ft 445 kts 318°
2026-05-07 18:27 48.87256 11.08856 32054 ft 446 kts 318°
2026-05-07 18:27 48.92026 11.02905 32055 ft 446 kts 319°
2026-05-07 18:28 48.96951 10.97095 32069 ft 447 kts 322°
2026-05-07 18:28 48.99493 10.94361 31753 ft 451 kts 323°
2026-05-07 18:28 49.02078 10.91618 31212 ft 451 kts 323°
2026-05-07 18:28 49.04645 10.88885 30652 ft 448 kts 323°
2026-05-07 18:29 49.07186 10.86152 30123 ft 447 kts 323°
2026-05-07 18:29 49.09722 10.83401 29500 ft 448 kts 322°
2026-05-07 18:29 49.12236 10.80658 28895 ft 450 kts 322°
2026-05-07 18:29 49.14792 10.77864 28292 ft 452 kts 322°
2026-05-07 18:30 49.17355 10.75055 27702 ft 453 kts 322°
2026-05-07 18:30 49.19740 10.71896 27113 ft 453 kts 312°
2026-05-07 18:30 49.21735 10.68144 26540 ft 453 kts 304°
2026-05-07 18:30 49.23540 10.64249 26004 ft 455 kts 304°
2026-05-07 18:31 49.25372 10.60291 25452 ft 455 kts 304°
2026-05-07 18:31 49.27222 10.56342 24908 ft 454 kts 304°
2026-05-07 18:31 49.29060 10.52462 24389 ft 447 kts 305°
2026-05-07 18:31 49.30888 10.48627 24227 ft 447 kts 305°
2026-05-07 18:32 49.32725 10.44767 24117 ft 446 kts 305°
2026-05-07 18:32 49.34557 10.40947 24088 ft 445 kts 306°
2026-05-07 18:32 49.36420 10.37162 24064 ft 444 kts 306°
2026-05-07 18:32 49.38298 10.33388 24062 ft 445 kts 306°
2026-05-07 18:33 49.40191 10.29592 23737 ft 448 kts 306°
2026-05-07 18:33 49.42051 10.25852 23371 ft 443 kts 306°
2026-05-07 18:33 49.43914 10.22095 22927 ft 438 kts 306°
2026-05-07 18:33 49.45748 10.18381 22489 ft 434 kts 306°
2026-05-07 18:34 49.47565 10.14692 22062 ft 432 kts 306°
2026-05-07 18:34 49.49375 10.11007 21640 ft 430 kts 306°
2026-05-07 18:34 49.50567 10.08576 21361 ft 428 kts 306°
2026-05-07 18:34 49.52359 10.04919 20949 ft 426 kts 306°
2026-05-07 18:35 49.54137 10.01284 20541 ft 424 kts 306°
2026-05-07 18:35 49.55913 9.97649 20141 ft 422 kts 306°
2026-05-07 18:35 49.57669 9.94050 19737 ft 418 kts 306°
2026-05-07 18:35 49.59409 9.90481 19352 ft 415 kts 306°
2026-05-07 18:36 49.61140 9.86924 18965 ft 413 kts 306°
2026-05-07 18:36 49.62845 9.83415 18602 ft 412 kts 306°
2026-05-07 18:36 49.64558 9.79886 18194 ft 408 kts 306°
2026-05-07 18:36 49.66252 9.76391 17759 ft 406 kts 306°
2026-05-07 18:37 49.67946 9.72891 17330 ft 404 kts 306°
2026-05-07 18:37 49.69628 9.69412 16896 ft 403 kts 306°
2026-05-07 18:37 49.71298 9.65953 16495 ft 401 kts 306°
2026-05-07 18:37 49.72963 9.62499 16081 ft 398 kts 306°
2026-05-07 18:38 49.74595 9.59110 15674 ft 396 kts 306°
2026-05-07 18:38 49.76237 9.55696 15290 ft 394 kts 306°
2026-05-07 18:38 49.77871 9.52295 14889 ft 393 kts 306°
2026-05-07 18:38 49.79498 9.48902 14500 ft 391 kts 306°
2026-05-07 18:39 49.81119 9.45520 14114 ft 389 kts 306°
2026-05-07 18:39 49.82729 9.42156 13716 ft 387 kts 306°
2026-05-07 18:39 49.84330 9.38808 13284 ft 385 kts 306°
2026-05-07 18:39 49.85899 9.35454 12859 ft 382 kts 302°
2026-05-07 18:40 49.86959 9.31777 12440 ft 380 kts 286°
2026-05-07 18:40 49.87666 9.27835 12038 ft 378 kts 285°
2026-05-07 18:40 49.88366 9.23907 11632 ft 376 kts 285°
2026-05-07 18:40 49.89078 9.20017 11230 ft 374 kts 286°
2026-05-07 18:41 49.89803 9.16142 11095 ft 375 kts 286°
2026-05-07 18:41 49.90539 9.12262 11057 ft 374 kts 286°
2026-05-07 18:41 49.91274 9.08393 11060 ft 373 kts 286°
2026-05-07 18:41 49.92009 9.04523 11059 ft 374 kts 286°
2026-05-07 18:42 49.92741 9.00653 11056 ft 374 kts 286°
2026-05-07 18:42 49.93474 8.96779 11055 ft 373 kts 286°
2026-05-07 18:42 49.94196 8.92965 10980 ft 361 kts 286°
2026-05-07 18:42 49.94892 8.89280 10628 ft 351 kts 286°
2026-05-07 18:43 49.95577 8.85656 10034 ft 349 kts 286°
2026-05-07 18:43 49.96250 8.82075 9376 ft 348 kts 286°
2026-05-07 18:43 49.96925 8.78490 8773 ft 344 kts 287°
2026-05-07 18:43 49.97607 8.74941 8261 ft 339 kts 286°
2026-05-07 18:44 49.97897 8.71299 8106 ft 343 kts 267°
2026-05-07 18:44 49.97372 8.67709 8074 ft 342 kts 251°
2026-05-07 18:44 49.96527 8.64252 8048 ft 342 kts 249°
2026-05-07 18:44 49.95662 8.60811 8044 ft 342 kts 250°
2026-05-07 18:45 49.94809 8.57366 8040 ft 342 kts 250°
2026-05-07 18:45 49.93968 8.53914 8046 ft 342 kts 250°
2026-05-07 18:45 49.93131 8.50456 8050 ft 342 kts 250°
2026-05-07 18:45 49.92296 8.46997 8046 ft 342 kts 250°
2026-05-07 18:46 49.91464 8.43551 8036 ft 335 kts 250°
2026-05-07 18:46 49.90667 8.40250 7974 ft 319 kts 250°
2026-05-07 18:46 49.89908 8.37105 7870 ft 304 kts 250°
2026-05-07 18:46 49.89188 8.34131 7770 ft 291 kts 250°
2026-05-07 18:47 49.88492 8.31263 7678 ft 278 kts 250°
2026-05-07 18:47 49.87824 8.28517 7595 ft 266 kts 250°
2026-05-07 18:47 49.87181 8.25869 7381 ft 260 kts 250°
2026-05-07 18:47 49.86544 8.23247 6957 ft 263 kts 250°
2026-05-07 18:48 49.85897 8.20588 6720 ft 258 kts 250°
2026-05-07 18:48 49.85277 8.18039 6632 ft 247 kts 250°
2026-05-07 18:48 49.84681 8.15601 6544 ft 238 kts 249°
2026-05-07 18:48 49.83850 8.13417 6290 ft 235 kts 239°
2026-05-07 18:49 49.83378 8.11044 5914 ft 233 kts 273°
2026-05-07 18:49 49.83933 8.08735 5554 ft 232 kts 312°
2026-05-07 18:49 49.85301 8.07510 5231 ft 231 kts 351°
2026-05-07 18:49 49.86834 8.07929 5058 ft 232 kts 31°
2026-05-07 18:50 49.88072 8.09574 5063 ft 236 kts 43°
2026-05-07 18:50 49.89256 8.11356 5012 ft 236 kts 43°
2026-05-07 18:50 49.90425 8.13125 5000 ft 233 kts 43°
2026-05-07 18:50 49.91576 8.14874 4993 ft 231 kts 43°
2026-05-07 18:51 49.92728 8.16630 5003 ft 232 kts 43°
2026-05-07 18:51 49.93863 8.18364 4969 ft 224 kts 43°
2026-05-07 18:51 49.94964 8.20047 4727 ft 221 kts 43°
2026-05-07 18:51 49.96040 8.21691 4456 ft 218 kts 43°
2026-05-07 18:52 49.97066 8.23357 4228 ft 209 kts 55°
2026-05-07 18:52 49.97389 8.25474 3991 ft 201 kts 98°
2026-05-07 18:52 49.97052 8.27550 3754 ft 195 kts 103°
2026-05-07 18:52 49.96714 8.29524 3686 ft 180 kts 103°
2026-05-07 18:53 49.96611 8.31501 3130 ft 194 kts 70°
2026-05-07 18:53 49.97251 8.33243 2914 ft 180 kts 52°
2026-05-07 18:53 49.97987 8.34772 2551 ft 179 kts 55°
2026-05-07 18:53 49.98631 8.36401 2242 ft 173 kts 60°
2026-05-07 18:54 49.99097 8.38102 2150 ft 173 kts 73°
2026-05-07 18:54 49.99374 8.39926 2021 ft 172 kts 69°
2026-05-07 18:54 49.99908 8.41612 1752 ft 167 kts 62°
2026-05-07 18:54 50.00343 8.43227 1464 ft 156 kts 72°
2026-05-07 18:55 50.00625 8.44745 1309 ft 140 kts 72°
2026-05-07 18:55 50.00943 8.46210 869 ft 142 kts 65°
2026-05-07 18:55 50.01372 8.47504 752 ft 132 kts 66°
2026-05-07 18:55 50.01647 8.48879 721 ft 138 kts 68°
2026-05-07 18:56 50.01993 8.50263 734 ft 143 kts 72°
2026-05-07 18:56 50.02359 8.51746 582 ft 143 kts 70°
2026-05-07 18:56 50.02701 8.53180 411 ft 140 kts 69°
2026-05-07 18:56 50.03033 8.54576 331 ft 132 kts 70°
2026-05-07 18:57 50.03319 8.55775 351 ft 106 kts 69°
2026-05-07 18:57 50.03522 8.56625 356 ft 58 kts 70°
2026-05-07 18:57 50.03656 8.57003 354 ft 35 kts 47°
2026-05-07 18:57 50.03820 8.57234 363 ft 30 kts 41°
2026-05-07 18:58 50.03966 8.57450 365 ft 28 kts 63°
2026-05-07 18:58 50.04033 8.57724 365 ft 26 kts 71°
2026-05-07 18:58 50.04090 8.57983 368 ft 24 kts 71°
2026-05-07 18:58 50.04150 8.58220 369 ft 23 kts 69°
2026-05-07 18:59 50.04207 8.58445 369 ft 22 kts 68°
2026-05-07 18:59 50.04260 8.58668 371 ft 22 kts 70°
2026-05-07 18:59 50.04308 8.58886 373 ft 21 kts 71°
2026-05-07 18:59 50.04358 8.59097 376 ft 20 kts 67°
2026-05-07 19:00 50.04409 8.59299 375 ft 20 kts 69°
2026-05-07 19:00 50.04454 8.59454 374 ft 13 kts 42°
2026-05-07 19:00 50.04531 8.59474 373 ft 11 kts 356°
2026-05-07 19:00 50.04543 8.59471 373 ft 0 kts 351°
2026-05-07 19:03 50.04575 8.59466 372 ft 11 kts 358°
2026-05-07 19:03 50.04681 8.59445 371 ft 18 kts 346°
2026-05-07 19:03 50.04793 8.59389 371 ft 15 kts 339°
2026-05-07 19:03 50.04869 8.59361 369 ft 9 kts
2026-05-07 19:04 50.04932 8.59371 367 ft 10 kts 349°